Weather History for Winona, MN

Change the Weather History Date:

Saturday, March 29, 2014

  Actual Average Record
Temperature  
Mean Temperature 37 °F -  
Max Temperature 48 °F 51 °F 75 °F (1981)
Min Temperature 26 °F 33 °F 18 °F (1970)
Degree Days  
Heating Degree Days 28    
Moisture  
Dew Point 25 °F    
Average Humidity 64    
Maximum Humidity 81    
Minimum Humidity 40    
Precipitation  
Precipitation 0.00 in - - ()
Sea Level Pressure  
Sea Level Pressure 30.23 in    
Wind  
Wind Speed 3 mph (NNW)    
Max Wind Speed 6 mph    
Max Gust Speed -    
Visibility 10 miles    
Events      
Averages and records for this station are not official NWS values.
T = Trace of Precipitation, MM = Missing Value Source: NWS Daily Summary

Daily Weather History Graph

Daily Weather History Graph

Search for Another Location

Airport:

Trip Planner

Search our weather history database for the weather conditions in past years. The results will help you decide how hot, cold, wet, or windy it might be!

Date:

Astronomy

Mar. 29, 2014 Rise Set
Actual Time 6:53 AM CDT 7:30 PM CDT
Civil Twilight 6:24 AM CDT 7:59 PM CDT
Nautical Twilight 5:50 AM CDT 8:33 PM CDT
Astronomical Twilight 5:14 AM CDT 9:09 PM CDT
Moon 6:04 AM CDT 6:34 PM CDT
Length of Visible Light 13h 34m
Length of Day
12h 36m
Waning Crescent, 2% of the Moon is Illuminated
Mar 29
Waning Crescent
Mar 30
New
Apr 7
First Quarter
Apr 15
Full
Apr 22
Last Quarter

Hourly Weather History & Observations

Time (CDT) Temp. Windchill Dew Point Humidity Pressure Visibility Wind Dir Wind Speed Gust Speed Precip Events Conditions
12:00 AM 33.8 °F 28.6 °F 26.6 °F 75% 30.21 in 10.0 mi NNW 5.8 mph - N/A   Overcast
12:20 AM 33.8 °F 29.6 °F 26.6 °F 75% 30.21 in 10.0 mi NNW 4.6 mph - N/A   Overcast
12:39 AM 33.8 °F 29.6 °F 26.6 °F 75% 30.21 in 10.0 mi NNW 4.6 mph - N/A   Overcast
1:00 AM 33.8 °F 29.6 °F 26.6 °F 75% 30.22 in 10.0 mi NNW 4.6 mph - N/A   Overcast
1:20 AM 32.0 °F 26.4 °F 23.0 °F 69% 30.23 in 10.0 mi NNW 5.8 mph - N/A   Overcast
1:39 AM 33.8 °F 28.6 °F 24.8 °F 70% 30.23 in 10.0 mi NNW 5.8 mph - N/A   Overcast
2:00 AM 32.0 °F - 23.0 °F 69% 30.23 in 10.0 mi Calm Calm - N/A   Overcast
2:20 AM 32.0 °F - 23.0 °F 69% 30.24 in 10.0 mi Calm Calm - N/A   Mostly Cloudy
2:40 AM 32.0 °F - 21.2 °F 64% 30.24 in 10.0 mi Calm Calm - N/A   Mostly Cloudy
3:00 AM 30.2 °F - 23.0 °F 75% 30.24 in 10.0 mi Calm Calm - N/A   Scattered Clouds
3:20 AM 30.2 °F - 23.0 °F 75% 30.24 in 10.0 mi Calm Calm - N/A   Clear
3:40 AM 30.2 °F - 23.0 °F 75% 30.24 in 10.0 mi Calm Calm - N/A   Clear
3:59 AM 30.2 °F - 23.0 °F 75% 30.24 in 10.0 mi Calm Calm - N/A   Clear
4:20 AM 30.2 °F - 23.0 °F 75% 30.24 in 10.0 mi Calm Calm - N/A   Clear
4:40 AM 28.4 °F - 23.0 °F 80% 30.24 in 10.0 mi Calm Calm - N/A   Clear
4:59 AM 28.4 °F - 21.2 °F 74% 30.24 in 10.0 mi Calm Calm - N/A   Clear
5:20 AM 28.4 °F 24.6 °F 23.0 °F 80% 30.24 in 10.0 mi NW 3.5 mph - N/A   Clear
5:40 AM 30.2 °F - 24.8 °F 80% 30.24 in 10.0 mi Calm Calm - N/A   Clear
5:59 AM 30.2 °F - 23.0 °F 75% 30.25 in 10.0 mi Calm Calm - N/A   Clear
6:20 AM 28.4 °F - 23.0 °F 80% 30.25 in 10.0 mi Calm Calm - N/A   Clear
6:40 AM 28.4 °F 23.3 °F 23.0 °F 80% 30.26 in 10.0 mi NW 4.6 mph - N/A   Clear
7:00 AM 28.4 °F 24.6 °F 23.0 °F 80% 30.27 in 10.0 mi NW 3.5 mph - N/A   Clear
7:20 AM 26.6 °F 21.2 °F 21.2 °F 80% 30.27 in 10.0 mi NNW 4.6 mph - N/A   Clear
7:40 AM 28.4 °F - 23.0 °F 80% 30.27 in 10.0 mi Calm Calm - N/A   Clear
8:00 AM 30.2 °F - 24.8 °F 80% 30.27 in 10.0 mi Calm Calm - N/A   Clear
8:20 AM 30.2 °F 26.7 °F 23.0 °F 75% 30.27 in 10.0 mi NNW 3.5 mph - N/A   Clear
8:40 AM 32.0 °F 28.7 °F 24.8 °F 75% 30.28 in 10.0 mi NNW 3.5 mph - N/A   Clear
9:00 AM 32.0 °F 28.7 °F 23.0 °F 69% 30.28 in 10.0 mi North 3.5 mph - N/A   Clear
9:20 AM 33.8 °F 28.6 °F 24.8 °F 70% 30.28 in 10.0 mi NW 5.8 mph - N/A   Clear
9:40 AM 33.8 °F 30.8 °F 23.0 °F 65% 30.28 in 10.0 mi NNE 3.5 mph - N/A   Clear
10:00 AM 35.6 °F - 24.8 °F 65% 30.28 in 10.0 mi Calm Calm - N/A   Clear
10:20 AM 35.6 °F - 24.8 °F 65% 30.28 in 10.0 mi Calm Calm - N/A   Clear
10:40 AM 35.6 °F - 24.8 °F 65% 30.28 in 10.0 mi Calm Calm - N/A   Clear
11:00 AM 37.4 °F - 26.6 °F 65% 30.28 in 10.0 mi Calm Calm - N/A   Clear
11:20 AM 39.2 °F 37.0 °F 24.8 °F 56% 30.27 in 10.0 mi SSE 3.5 mph - N/A   Clear
11:39 AM 39.2 °F 37.0 °F 26.6 °F 61% 30.27 in 10.0 mi ENE 3.5 mph - N/A   Clear
12:00 PM 41.0 °F - 24.8 °F 53% 30.27 in 10.0 mi Calm Calm - N/A   Clear
12:20 PM 41.0 °F - 24.8 °F 53% 30.27 in 10.0 mi Calm Calm - N/A   Clear
12:39 PM 42.8 °F 41.1 °F 23.0 °F 46% 30.26 in 10.0 mi ESE 3.5 mph - N/A   Clear
1:00 PM 42.8 °F 39.3 °F 23.0 °F 46% 30.25 in 10.0 mi ESE 5.8 mph - N/A   Clear
1:20 PM 44.6 °F 43.1 °F 24.8 °F 46% 30.25 in 10.0 mi ENE 3.5 mph - N/A   Clear
1:39 PM 44.6 °F 42.2 °F 26.6 °F 49% 30.24 in 10.0 mi ESE 4.6 mph - N/A   Clear
2:00 PM 46.4 °F 44.3 °F 26.6 °F 46% 30.23 in 10.0 mi ENE 4.6 mph - N/A   Clear
2:20 PM 46.4 °F 44.3 °F 26.6 °F 46% 30.22 in 10.0 mi East 4.6 mph - N/A   Clear
2:39 PM 46.4 °F - 26.6 °F 46% 30.22 in 10.0 mi Calm Calm - N/A   Clear
3:00 PM 46.4 °F 43.5 °F 26.6 °F 46% 30.22 in 10.0 mi NNE 5.8 mph - N/A   Clear
3:20 PM 46.4 °F 45.2 °F 26.6 °F 46% 30.21 in 10.0 mi ENE 3.5 mph - N/A   Clear
3:39 PM 48.2 °F - 26.6 °F 43% 30.21 in 10.0 mi Calm Calm - N/A   Clear
4:00 PM 48.2 °F - 24.8 °F 40% 30.21 in 10.0 mi Calm Calm - N/A   Clear
4:20 PM 48.2 °F - 28.4 °F 46% 30.20 in 10.0 mi West 4.6 mph - N/A   Clear
4:39 PM 48.2 °F - 28.4 °F 46% 30.20 in 10.0 mi SSW 3.5 mph - N/A   Clear
5:00 PM 48.2 °F - 28.4 °F 46% 30.20 in 10.0 mi SSW 3.5 mph - N/A   Clear
5:20 PM 48.2 °F - 30.2 °F 50% 30.20 in 10.0 mi SW 3.5 mph - N/A   Clear
5:39 PM 46.4 °F 45.2 °F 28.4 °F 50% 30.19 in 10.0 mi West 3.5 mph - N/A   Clear
6:00 PM 48.2 °F - 28.4 °F 46% 30.19 in 10.0 mi South 3.5 mph - N/A   Clear
6:20 PM 46.4 °F 45.2 °F 28.4 °F 50% 30.18 in 10.0 mi West 3.5 mph - N/A   Clear
6:39 PM 46.4 °F 45.2 °F 28.4 °F 50% 30.18 in 10.0 mi SW 3.5 mph - N/A   Clear
7:00 PM 46.4 °F 45.2 °F 28.4 °F 50% 30.18 in 10.0 mi South 3.5 mph - N/A   Clear
7:20 PM 42.8 °F 40.1 °F 26.6 °F 53% 30.17 in 10.0 mi SSW 4.6 mph - N/A   Clear
7:39 PM 42.8 °F 40.1 °F 24.8 °F 49% 30.18 in 10.0 mi SSW 4.6 mph - N/A   Clear
8:00 PM 41.0 °F - 23.0 °F 49% 30.18 in 10.0 mi Calm Calm - N/A   Clear
8:20 PM 41.0 °F 39.0 °F 23.0 °F 49% 30.17 in 10.0 mi SSE 3.5 mph - N/A   Clear
8:39 PM 39.2 °F - 24.8 °F 56% 30.18 in 10.0 mi Calm Calm - N/A   Clear
9:00 PM 37.4 °F - 26.6 °F 65% 30.18 in 10.0 mi Calm Calm - N/A   Clear
9:20 PM 33.8 °F - 26.6 °F 75% 30.19 in 10.0 mi Calm Calm - N/A   Clear
9:39 PM 32.0 °F - 26.6 °F 80% 30.18 in 10.0 mi Calm Calm - N/A   Clear
10:00 PM 32.0 °F 26.4 °F 26.6 °F 80% 30.17 in 10.0 mi ESE 5.8 mph - N/A   Clear
10:20 PM 32.0 °F 27.5 °F 26.6 °F 80% 30.17 in 10.0 mi SE 4.6 mph - N/A   Clear
10:39 PM 33.8 °F 30.8 °F 28.4 °F 81% 30.17 in 10.0 mi SSE 3.5 mph - N/A   Clear
11:00 PM 33.8 °F 30.8 °F 26.6 °F 75% 30.17 in 10.0 mi SSE 3.5 mph - N/A   Clear
11:20 PM 33.8 °F 28.6 °F 28.4 °F 81% 30.17 in 10.0 mi SE 5.8 mph - N/A   Clear
11:39 PM 33.8 °F 29.6 °F 28.4 °F 81% 30.17 in 10.0 mi SSE 4.6 mph - N/A   Clear